Regional Weather Roundup
Issued by NWS Green Bay, WI

Home | Current Version | Previous Version | Text Only | Print | Product List | Glossary On
Versions: 1 2 3 4 5 6 7 8 9 10 11 12 13 14 15 16 17 18 19 20 21 22 23 24 25 26 27 28 29 30 31 32 33 34 35 36 37 38 39 40 41 42 43 44 45 46 47 48 49 50
000
ASUS43 KGRB 282310
RWRGRB

NORTH-CENTRAL AND NORTHEAST WISCONSIN REGIONAL WEATHER ROUNDUP
NATIONAL WEATHER SERVICE GREEN BAY WI
600 PM CDT MON JUL 28 2014

WIZ005-009-010>012-018-019-290000-
NORTH CENTRAL WISCONSIN

CITY           SKY/WX    TMP DP  RH WIND       PRES   REMARKS
IRONWOOD       NOT AVBL
MANITOWISH WTR CLOUDY    67  53  60 NW9       30.10F
ARBOR VITAE    MOSUNNY   69  54  57 NW7       30.10F
EAGLE RIVER    PTSUNNY   68  49  51 NW10G17   30.08F
LAND O LAKES   MOSUNNY   68  51  53 NW8G16    30.09F
RHINELANDER    CLOUDY    67  52  58 VRB7      30.10F
PHILLIPS       CLOUDY    67  54  63 NW3       30.11S
ANTIGO         MOSUNNY   67  52  58 NW14      30.09S
TOMAHAWK       CLOUDY    67  51  56 NW7       30.11S
MERRILL        CLOUDY    68  55  62 NW3       30.10S
$$

WIZ013-073-290000-
NORTHEAST WISCONSIN

CITY           SKY/WX    TMP DP  RH WIND       PRES   REMARKS
IRON MOUNTAIN  PTSUNNY   69  49  48 NW9       30.04S
MARINETTE      CLOUDY    68  55  64 SW5       30.03S
OCONTO         CLOUDY    70  54  56 NW6       30.04S
$$

WIZ017-030-035>037-045-290000-
CENTRAL WISCONSIN

CITY           SKY/WX    TMP DP  RH WIND       PRES   REMARKS
MEDFORD        CLOUDY    67  53  61 NW9       30.12S
WAUSAU         CLOUDY    70  50  49 NW13      30.08S
MOSINEE        NOT AVBL
MARSHFIELD     PTSUNNY   72  53  51 NW13      30.10F
WISC RAPIDS    SUNNY     73  52  47 NW14      30.10F
STEVENS POINT  CLOUDY    69  52  54 NW6       30.09S
WAUPACA        CLOUDY    74  48  39 N8        30.07R
SHAWANO        CLOUDY    71  52  51 NW5       30.06F
CLINTONVILLE   CLOUDY    70  48  46 N5        30.06S
$$

WIZ038-039-048-051-290000-
FOX VALLEY

CITY           SKY/WX    TMP DP  RH WIND       PRES   REMARKS
NWS GREEN BAY  CLOUDY    70  53  54 N7        30.05S
APPLETON       PTSUNNY   70  48  46 N10       30.07R
OSHKOSH        PTSUNNY   73  52  47 N13       30.05S
FOND DU LAC    CLOUDY    73  50  44 N15       30.06S
$$

WIZ022-050-052-290000-
EAST CENTRAL WISCONSIN

CITY           SKY/WX    TMP DP  RH WIND       PRES   REMARKS
STURGEON BAY   PTSUNNY   64  50  59 SW7       30.05F
MANITOWOC      CLOUDY    60  47  61 SE6       30.06F
SHEBOYGAN      PTSUNNY   63  49  60 E6        30.06F
$$

LMZ563-521-522-541>543-290000-
LAKESHORE

STATION/POSITION TIME  TEMP    WIND        PRES    VSBY  WAVE
                       AIR SEA DIR/SP/G                  HT/PER
                 (UTC) (F)     (DEG/KT/KT) (MB)    (MI)  (FT/S)
SHEBOYGAN LKSHOR 2300   59     190/  4/  4 1018.2F
KEWAUNEE LKSHORE 2300   54     180/  6/  6 1018.6R
TWO RIVERS CG    2200   56 64                N/A       6   0
NORTHPORT PIER   2300   65      CALM  /  4 1016.6S
N MID LAKE BUOY  2300   55 52  210/  8/  8 1016.3F         0
S GREEN BAY BUOY 2300   67 67  240/  4     1018.0F
SISTER BAY LKSHO 2200   68     280/  8/  9   N/A
CHAMBERS ISLAND  2300   66     190/  4/  7 1016.9S
MENOMINEE LKSHOR 2300   66     170/  5/  7 1017.6F
$$



USA.gov is the U.S. government's official web portal to all federal, state and local government web resources and services.